Regional Weather Roundup
Issued by NWS Sioux Falls, SD

Home | Current Version | Previous Version | Text Only | Print | Product List | Glossary Off
Versions: 1 2 3 4 5 6 7 8 9 10 11 12 13 14 15 16 17 18 19 20 21 22 23 24 25 26 27 28 29 30 31 32 33 34 35 36 37 38 39 40 41 42 43 44 45 46 47 48 49 50

000
ASUS43 KFSD 142302
RWRFSD

WEATHER ROUNDUP FOR SE SOUTH DAKOTA/SW MINNESOTA/NW IOWA
NATIONAL WEATHER SERVICE SIOUX FALLS SD
600 PM CDT SUN SEP 14 2014

NOTE: "FAIR" INDICATES FEW OR NO CLOUDS BELOW 12,000 FEET WITH NO
SIGNIFICANT WEATHER AND OR OBSTRUCTIONS TO VISIBILITY.


SDZ038>040-050-052>070-150000-
SOUTHEAST SOUTH DAKOTA

CITY           SKY/WX    TMP DP  RH WIND       PRES   REMARKS
CHAMBERLAIN    CLOUDY    54  43  66 NE7       30.12S
HURON          LGT RAIN  52  44  74 NE3       30.14R
MADISON        MOCLDY    54  46  76 NE6       30.12F
MITCHELL       CLOUDY    56  44  64 NE9       30.12F
SIOUX FALLS    PTSUNNY   61  46  57 NE7       30.10F
WINNER         CLOUDY    57  42  57 NE13      30.10R
YANKTON        MOSUNNY   64  48  55 NE3       30.08S
$$

MNZ071-072-080-081-089-090-097-098-150000-
SOUTHWEST MINNESOTA

CITY           SKY/WX    TMP DP  RH WIND       PRES   REMARKS
FAIRMONT       CLOUDY    64  43  45 N7        30.11S
JACKSON        CLOUDY    64  41  42 CALM      30.11F
LUVERNE        CLOUDY    64  41  42 N6        30.11S
MARSHALL       CLOUDY    54  45  71 W7        30.13S
MONTEVIDEO     PTSUNNY   61  43  51 CALM      30.13S
PIPESTONE      CLOUDY    55  43  62 NE3       30.12S
REDWOOD FALLS  CLOUDY    58  41  53 NW5       30.12S
TRACY          CLOUDY    54  48  82 CALM      30.14S
WINDOM         CLOUDY    61  43  51 N12       30.13R
WORTHINGTON    CLOUDY    63  43  48 N6        30.12S
$$

IAZ001>003-012>014-020>022-031-032-NEZ013-014-SDZ071-150000-
NORTHWEST IOWA

CITY           SKY/WX    TMP DP  RH WIND       PRES   REMARKS
CHEROKEE       MOSUNNY   66  51  57 SW6       30.10S
DENISON        PTSUNNY   68  50  52 S7        30.09R
ESTHERVILLE    PTSUNNY   64  48  56 SW6       30.10F
LE MARS        SUNNY     66  50  55 S3        30.10S
ORANGE CITY    MOSUNNY   66  48  52 W5        30.10F
SHELDON        MOSUNNY   64  48  55 CALM      30.09F
SIOUX CITY     MOSUNNY   69  50  50 S7        30.09F
SPENCER        MOSUNNY   66  51  58 NW5       30.11S
STORM LAKE     MOSUNNY   66  54  63 W6        30.11S
$$

ABBREVIATIONS USED IN REMARKS
   TC - TEMPERATURE IN CELSIUS
  WCI - WIND CHILL INDEX
   HX - HEAT INDEX
  VSB - VISIBILITY



USA.gov is the U.S. government's official web portal to all federal, state and local government web resources and services.